Location: Cul de Sac
(18.0387°N, 63.0654°W)
Time: 02:01:08
(UTC+00:00)

SEDSat Delta rocket - Visible Passes

Search period start: 01 March 2021 00:00
Search period end: 11 March 2021 00:00
Orbit: 533 x 1000 km, 31.4° (Epoch: 28 February)

Date Brightness Start Highest point End Pass type
(mag) Time Alt. Az. Time Alt. Az. Time Alt. Az.
01 Mar 5.4 00:37:11 10° W 00:39:13 20° WSW 00:39:13 20° WSW visible
01 Mar 4.3 23:55:54 10° W 00:00:16 33° SW 00:01:19 29° S visible
02 Mar 4.2 23:14:39 10° WNW 23:19:33 43° SSW 23:23:29 12° SE visible
03 Mar 4.0 22:33:25 10° WNW 22:38:46 56° SSW 22:43:25 10° SE visible
04 Mar 5.8 23:41:23 10° WSW 23:43:40 13° SW 23:45:50 10° S visible
05 Mar 5.7 22:59:21 10° W 23:02:55 18° SW 23:06:13 10° S visible
09 Mar 6.0 09:34:50 10° S 09:37:19 13° SE 09:39:56 10° ESE visible
